Location: Greenspot (historical)
(34.0858°N, 117.1109°W)
Time: 06:44:28
(UTC+00:00)

Cosmos 1933 Rocket - Pass Details

Date: 18 April 2024
Orbit: 603 x 627 km, 82.5° (Epoch: 28 May)

Event Time Altitude Azimuth Distance (km) Brightness Sun altitude
Rises 12:35:46 0° 341° (NNW) 2,873 7.0 -8.2°
Reaches altitude 10° 12:38:10 10° 331° (NNW) 1,961 6.0 -7.7°
Maximum altitude 12:41:59 31° 269° (W) 1,068 4.3 -7.0°
Drops below altitude 10° 12:45:46 10° 207° (SSW) 1,941 5.7 -6.3°
Sets 12:48:09 0° 197° (SSW) 2,838 6.6 -5.8°
